sat.trackr.live / text

‹ back to catalog

ORBCOMM FM116

NORAD 41189 · 2015-081L

PAYLOAD ACTIVE UNKNOWN

§ Identity

Operator
Country
ORB
Launch date
2015-12-22
Launch site
AFETR
Launch vehicle
Mass (kg)
RCS (m²)
0.55

Purposes: comms

External: N2YO · Heavens-Above · Gunter

§ Orbital elements

Epoch: 2026-05-25T02:01:57.068256Z

Period
98.71 min
Inclination
47.0037°
Eccentricity
0.0001955
Mean motion
14.58841637 rev/d
Perigee alt
695.5 km
Apogee alt
698.3 km
Semi-major
7,075.1 km
B*
1.5803e-4
RAAN
19.8522°
Arg perigee
314.3061°
Mean anomaly
45.7665°
Rev number
55,556

§ Raw data

ORBCOMM FM1161 41189U 15081L   26145.08468829  .00000576  00000+0  15803-3 0  99982 41189  47.0037  19.8522 0001955 314.3061  45.7665 14.58841637555567

JSON: /api/v1/satellites/41189 · /tle

For live sub-satellite position, see the globe view (requires WebGL).

§ Visibility from observer

Set your observer location to see the next 7 days of passes ≥ 10°. The values pass through the URL so the page stays shareable.

No JS? Fill the form by hand. The geolocation button needs JavaScript.

§ Radio — SatNOGS DB

ModeDescriptionDownlinkUplink
FM Telemetry 137.663 MHz
FM Telemetry 137.800 MHz

2 transmitters · refreshed weekly from db.satnogs.org